Retour au catalogue

JILIN-01-08

ActifScienceSSO
NORAD 43160·PAYLOAD·🇨🇳 China

Lancé Jan 19, 2018 depuis Jiuquan Satellite Launch Center

Loading…

Prochains Passages (prochaines 24 heures)

TLE

FraisSource: Space-Track

Époque: Sep 14, 2026, 13:54 UTC

1 43160U 18008F   26257.57934151  .00005367  00000-0  16178-3 0  9995
2 43160  97.1797 274.4032 0008076 108.2097 252.0026 15.34693434478655

Suivez JILIN-01-08 en temps réel avec AllMySat

Download on the App Store